Voltar ao catálogo

COSMOS 1408 DEB

AtivoPO
NORAD 50032·DEBRIS·🇷🇺 Russia

Lançado Sep 16, 1982 de Plesetsk Cosmodrome

Loading…

Próximas Passagens (próximas 24 horas)

TLE

AtualizadoSource: Space-Track

Época: Sep 14, 2026, 02:35 UTC

1 50032U 82092RU  26257.10778682  .00003694  00000-0  68792-4 0  9990
2 50032  82.5626 135.6378 0013291 294.6589  65.3277 15.48362470268616

Acompanhe COSMOS 1408 DEB em tempo real com AllMySat

Download on the App Store